Georgetown, DE

1:46 AM EST on February 27, 2017 (GMT -0500)
Sussex County

Weather History for KGED - October, 2013

Change the Weather History Date:

Wednesday, October 2, 2013

  Actual Average Record
Temperature  
Mean Temperature 73 °F 62 °F  
Max Temperature 86 °F 73 °F 89 °F (1986)
Min Temperature 59 °F 52 °F 37 °F (1972)
Degree Days  
Heating Degree Days 0 4  
Month to date heating degree days 0 8  
Since 1 July heating degree days 52 46  
Cooling Degree Days 8 2  
Month to date cooling degree days 10 4  
Year to date cooling degree days 1333 1175  
Growing Degree Days 24 (Base 50)    
Moisture  
Dew Point 59 °F    
Average Humidity 64    
Maximum Humidity 90    
Minimum Humidity 37    
Precipitation  
Precipitation 0.00 in 0.11 in 1.69 in (2015)
Month to date precipitation 0.00 0.21  
Year to date precipitation 42.68 33.61  
Sea Level Pressure  
Sea Level Pressure 30.03 in    
Wind  
Wind Speed 4 mph (West)    
Max Wind Speed 12 mph    
Max Gust Speed 16 mph    
Visibility 10 miles    
Events      
T = Trace of Precipitation, MM = Missing Value Source: NWS Daily Summary

Daily Weather History Graph

Daily Weather History Graph

Search for Another Location

Airport or City:

Trip Planner

Search our weather history database for the weather conditions in past years. The results will help you decide how hot, cold, wet, or windy it might be!

Date:

Astronomy

Oct. 02, 2013 Rise Set
Actual Time 6:58 AM EDT 6:42 PM EDT
Civil Twilight 6:31 AM EDT 7:08 PM EDT
Nautical Twilight 6:01 AM EDT 7:39 PM EDT
Astronomical Twilight 5:30 AM EDT 8:10 PM EDT
Moon 4:30 AM EDT (10/2) 5:16 PM EDT (10/2)
Length of Visible Light 12h 36m
Length of Day
11h 43m
Waning Crescent, 6% of the Moon is Illuminated
Oct 2
Waning Crescent
Oct 4
New
Oct 11
First Quarter
Oct 18
Full
Oct 26
Last Quarter

Hourly Weather History & Observations

Time (EDT) Temp. Heat Index Dew Point Humidity Pressure Visibility Wind Dir Wind Speed Gust Speed Precip Events Conditions
12:54 AM 64.9 °F - 59.0 °F 81% 30.01 in 10.0 mi SW 5.8 mph - N/A   Partly Cloudy
1:54 AM 66.9 °F - 60.1 °F 79% 30.02 in 10.0 mi WSW 3.5 mph - N/A   Clear
2:54 AM 66.0 °F - 60.1 °F 81% 30.01 in 10.0 mi WSW 3.5 mph - N/A   Clear
3:54 AM 64.0 °F - 60.1 °F 87% 30.01 in 10.0 mi Calm Calm - N/A   Clear
4:54 AM 64.0 °F - 60.1 °F 87% 30.02 in 10.0 mi Calm Calm - N/A   Clear
5:54 AM 62.1 °F - 59.0 °F 90% 30.03 in 9.0 mi Calm Calm - N/A   Clear
6:54 AM 61.0 °F - 57.9 °F 90% 30.04 in 8.0 mi Calm Calm - N/A   Clear
7:54 AM 64.0 °F - 59.0 °F 84% 30.05 in 7.0 mi Calm Calm - N/A   Clear
8:54 AM 70.0 °F - 60.1 °F 71% 30.07 in 10.0 mi NW 4.6 mph - N/A   Clear
9:54 AM 73.9 °F - 61.0 °F 64% 30.07 in 10.0 mi Variable 4.6 mph - N/A   Clear
10:54 AM 79.0 °F - 61.0 °F 54% 30.07 in 10.0 mi NW 4.6 mph - N/A   Clear
11:54 AM 81.0 °F 81.3 °F 59.0 °F 47% 30.06 in 10.0 mi North 6.9 mph - N/A   Clear
12:54 PM 82.0 °F 82.1 °F 59.0 °F 45% 30.05 in 10.0 mi West 4.6 mph - N/A   Partly Cloudy
1:54 PM 84.0 °F 83.3 °F 57.0 °F 40% 30.02 in 10.0 mi Variable 5.8 mph - N/A   Clear
2:54 PM 84.9 °F 83.7 °F 55.9 °F 37% 30.01 in 10.0 mi West 6.9 mph - N/A   Clear
3:54 PM 86.0 °F 84.9 °F 57.0 °F 37% 30.00 in 10.0 mi West 8.1 mph - N/A   Clear
4:54 PM 84.0 °F 83.0 °F 55.9 °F 38% 30.01 in 10.0 mi WSW 9.2 mph - N/A   Clear
5:54 PM 81.0 °F 81.3 °F 59.0 °F 47% 30.01 in 10.0 mi Variable 4.6 mph - N/A   Clear
6:54 PM 75.9 °F - 61.0 °F 60% 30.02 in 10.0 mi Calm Calm - N/A   Clear
7:54 PM 71.1 °F - 61.0 °F 70% 30.03 in 10.0 mi WSW 4.6 mph - N/A   Clear
8:54 PM 72.0 °F - 60.1 °F 66% 30.04 in 10.0 mi SW 4.6 mph - N/A   Clear
9:54 PM 68.0 °F - 60.1 °F 76% 30.05 in 10.0 mi WSW 4.6 mph - N/A   Clear
10:54 PM 66.9 °F - 60.1 °F 79% 30.06 in 10.0 mi SW 5.8 mph - N/A   Clear
11:54 PM 69.1 °F - 61.0 °F 75% 30.07 in 10.0 mi WSW 4.6 mph - N/A   Clear